This is the latest recevied weather packets stored in our database for station/object SP3WRO-13. If no packets are shown the sender has not sent any weather packets the latest 10 day(s).
| Time | Temp. | Humidity | Pressure | Rain* | Wind** | Luminosity | Snow |
|---|---|---|---|---|---|---|---|
| 1777599849 | 2.22° C | 93% | 1024.7 hPa | - | - | - | - |
| 1777598949 | 2.22° C | 93% | 1024.7 hPa | - | - | - | - |
| 1777598049 | 2.22° C | 93% | 1024.7 hPa | - | - | - | - |
| 1777597149 | 2.22° C | 92% | 1024.7 hPa | - | - | - | - |
| 1777596249 | 2.78° C | 92% | 1024.6 hPa | - | - | - | - |
| 1777595349 | 2.78° C | 92% | 1024.6 hPa | - | - | - | - |
| 1777594449 | 2.78° C | 91% | 1024.6 hPa | - | - | - | - |
| 1777593549 | 2.78° C | 90% | 1024.5 hPa | - | - | - | - |
| 1777592649 | 2.78° C | 90% | 1024.5 hPa | - | - | - | - |
| 1777591748 | 3.33° C | 89% | 1024.5 hPa | - | - | - | - |
| 1777590848 | 3.33° C | 88% | 1024.6 hPa | - | - | - | - |
| 1777589948 | 3.89° C | 88% | 1024.6 hPa | - | - | - | - |
| 1777589048 | 3.89° C | 87% | 1024.6 hPa | - | - | - | - |
| 1777588148 | 3.89° C | 86% | 1024.6 hPa | - | - | - | - |
| 1777587248 | 4.44° C | 87% | 1024.6 hPa | - | - | - | - |
| 1777586348 | 4.44° C | 87% | 1024.6 hPa | - | - | - | - |
| 1777585448 | 5° C | 85% | 1024.6 hPa | - | - | - | - |
| 1777584548 | 5.56° C | 82% | 1024.6 hPa | - | - | - | - |
| 1777583648 | 5.56° C | 80% | 1024.5 hPa | - | - | - | - |
| 1777582748 | 6.11° C | 81% | 1024.5 hPa | - | - | - | - |
| 1777581848 | 6.67° C | 81% | 1024.5 hPa | - | - | - | - |
| 1777580948 | 6.67° C | 81% | 1024.6 hPa | - | - | - | - |
| 1777580048 | 7.22° C | 83% | 1024.5 hPa | - | - | - | - |
| 1777579148 | 7.22° C | 82% | 1024.5 hPa | - | - | - | - |
| 1777578248 | 7.22° C | 81% | 1024.4 hPa | - | - | - | - |
* Rain since midnight (hover to see other rain measurements)
** Current wind speed in m/s (hover to see current wind gust speed)